TGL971C LFBZ-LICC

Flight info

Callsign TGL971C
Flight time N/A
Altitude 36000
Route SOVOS G17 ORTEZ DCT TBO DCT PERDU N862 POSSY M601 BCN N725 ORKUM M603 ELSAG DCT ALG/N0428F370 DCT QUENN DCT RONAB DCT BEKIV/N0342F190 M871 LIBRO
Aircraft A320/M-SDE3FGHIRWY/LB1

Departure

Time N/A
Airport Biarritz Pays Basque airport (LFBZ)

Arrival

Time 2026-05-04 12:40
Airport Catania-Fontanarossa Airport (LICC)
Time Latitude Longitude Altitude Speed Heading
2026-05-04 10:56 41.54524 1.50590 35973 ft 463 kts 125°
2026-05-04 10:56 41.53032 1.54403 35942 ft 463 kts 126°
2026-05-04 10:57 41.50042 1.62011 35958 ft 463 kts 126°
2026-05-04 10:57 41.47046 1.69624 35963 ft 464 kts 126°
2026-05-04 10:58 41.44050 1.77235 35969 ft 464 kts 126°
2026-05-04 10:58 41.41045 1.84836 35972 ft 463 kts 126°
2026-05-04 10:59 41.38053 1.92364 35970 ft 463 kts 126°
2026-05-04 10:59 41.35033 1.99946 35965 ft 464 kts 126°
2026-05-04 11:00 41.32006 2.07541 35935 ft 466 kts 125°
2026-05-04 11:01 41.26281 2.37737 35951 ft 486 kts 109°
2026-05-04 11:02 41.25552 2.42117 35951 ft 486 kts 109°
2026-05-04 11:05 41.14396 3.07740 35993 ft 487 kts 110°
2026-05-04 11:06 41.12882 3.16489 36005 ft 487 kts 110°
2026-05-04 11:06 41.11361 3.25232 36009 ft 487 kts 110°
2026-05-04 11:10 41.00521 3.86283 36008 ft 486 kts 110°
2026-05-04 11:12 40.94186 4.21013 36000 ft 485 kts 110°
2026-05-04 11:12 40.92587 4.29691 35999 ft 486 kts 110°
2026-05-04 11:13 40.90973 4.38368 36003 ft 486 kts 110°
2026-05-04 11:13 40.89354 4.47045 36009 ft 487 kts 110°
2026-05-04 11:14 40.87749 4.55676 36012 ft 487 kts 110°
2026-05-04 11:16 40.83416 4.91297 36014 ft 494 kts 102°
2026-05-04 11:16 40.82572 5.00313 36005 ft 495 kts 102°
2026-05-04 11:17 40.81722 5.09344 36011 ft 496 kts 102°
2026-05-04 11:19 40.78218 5.45520 36006 ft 497 kts 102°
2026-05-04 11:19 40.77318 5.54574 36004 ft 498 kts 102°
2026-05-04 11:20 40.76418 5.63632 36018 ft 498 kts 102°
2026-05-04 11:20 40.75515 5.72695 36008 ft 498 kts 102°
2026-05-04 11:22 40.71795 6.08936 36027 ft 499 kts 102°
2026-05-04 11:23 40.70846 6.17985 36030 ft 499 kts 102°
2026-05-04 11:25 40.67467 6.49681 36044 ft 499 kts 102°
2026-05-04 11:25 40.66486 6.58730 36047 ft 500 kts 102°
2026-05-04 11:27 40.61980 6.99465 36055 ft 501 kts 102°
2026-05-04 11:28 40.60959 7.08549 36064 ft 502 kts 102°
2026-05-04 11:28 40.59935 7.17628 36070 ft 502 kts 102°
2026-05-04 11:29 40.58891 7.26716 36071 ft 502 kts 102°
2026-05-04 11:29 40.57849 7.35799 36080 ft 502 kts 102°
2026-05-04 11:31 40.58103 7.67936 36074 ft 508 kts 84°
2026-05-04 11:33 40.60713 7.98732 36072 ft 509 kts 84°
2026-05-04 11:33 40.61480 8.07985 36071 ft 509 kts 84°
2026-05-04 11:34 40.62238 8.17242 36083 ft 509 kts 84°
2026-05-04 11:34 40.62243 8.26507 36077 ft 505 kts 101°
2026-05-04 11:35 40.60687 8.35458 36054 ft 502 kts 108°
2026-05-04 11:35 40.58982 8.44355 36057 ft 502 kts 107°
2026-05-04 11:36 40.57281 8.53265 36061 ft 502 kts 107°
2026-05-04 11:36 40.55559 8.62174 36067 ft 503 kts 107°
2026-05-04 11:37 40.53832 8.71083 36076 ft 503 kts 107°
2026-05-04 11:37 40.52091 8.79992 36083 ft 504 kts 107°
2026-05-04 11:38 40.50340 8.88907 36082 ft 504 kts 107°
2026-05-04 11:38 40.48590 8.97813 36321 ft 504 kts 107°
2026-05-04 11:39 40.47710 9.02267 36438 ft 503 kts 107°
2026-05-04 11:39 40.46829 9.06716 36563 ft 503 kts 107°
2026-05-04 11:40 40.41519 9.33311 37095 ft 503 kts 107°
2026-05-04 11:41 40.40627 9.37749 37095 ft 503 kts 107°
2026-05-04 11:41 40.38850 9.46620 37098 ft 503 kts 107°
2026-05-04 11:42 40.37059 9.55486 37106 ft 503 kts 106°
2026-05-04 11:42 40.35255 9.64339 37104 ft 503 kts 107°
2026-05-04 11:43 40.33443 9.73193 37110 ft 503 kts 107°
2026-05-04 11:43 40.31626 9.82041 37109 ft 503 kts 107°
2026-05-04 11:44 40.29810 9.90869 37117 ft 502 kts 106°
2026-05-04 11:44 40.27984 9.99687 37121 ft 501 kts 106°
2026-05-04 11:45 40.26152 10.08496 37117 ft 502 kts 106°
2026-05-04 11:45 40.24318 10.17303 37124 ft 501 kts 106°
2026-05-04 11:46 40.22474 10.26097 37127 ft 500 kts 106°
2026-05-04 11:46 40.20629 10.34861 37128 ft 499 kts 106°
2026-05-04 11:47 40.18795 10.43618 37127 ft 499 kts 106°
2026-05-04 11:47 40.16935 10.52365 37126 ft 499 kts 106°
2026-05-04 11:48 40.15060 10.61098 37128 ft 499 kts 105°
2026-05-04 11:48 40.13203 10.69827 37130 ft 498 kts 105°
2026-05-04 11:49 40.11335 10.78540 37134 ft 498 kts 106°
2026-05-04 11:49 40.09460 10.87248 37135 ft 498 kts 106°
2026-05-04 11:50 40.07582 10.95957 37139 ft 498 kts 106°
2026-05-04 11:50 40.05696 11.04654 37144 ft 498 kts 106°
2026-05-04 11:51 40.03799 11.13345 37141 ft 498 kts 106°
2026-05-04 11:51 40.01899 11.22029 37141 ft 498 kts 106°
2026-05-04 11:52 39.99995 11.30714 37145 ft 498 kts 106°
2026-05-04 11:52 39.98088 11.39397 37141 ft 498 kts 106°
2026-05-04 11:53 39.96168 11.48069 37151 ft 498 kts 106°
2026-05-04 11:53 39.94232 11.56742 37150 ft 498 kts 106°
2026-05-04 11:55 39.84595 11.90197 37161 ft 493 kts 134°
2026-05-04 11:56 39.79487 11.96027 37160 ft 487 kts 149°
2026-05-04 11:56 39.73956 12.01114 37158 ft 487 kts 149°
2026-05-04 11:57 39.68417 12.06198 37163 ft 488 kts 149°
2026-05-04 11:57 39.62870 12.11282 37160 ft 488 kts 149°
2026-05-04 11:58 39.57352 12.16334 37160 ft 489 kts 148°
2026-05-04 11:58 39.51786 12.21413 37164 ft 490 kts 148°
2026-05-04 11:59 39.46216 12.26490 37163 ft 490 kts 148°
2026-05-04 11:59 39.40643 12.31555 37162 ft 490 kts 148°
2026-05-04 12:00 39.35072 12.36616 37170 ft 490 kts 148°
2026-05-04 12:00 39.29484 12.41664 37178 ft 490 kts 148°
2026-05-04 12:01 39.23899 12.46721 37163 ft 491 kts 148°
2026-05-04 12:02 39.04319 12.64342 37169 ft 491 kts 148°
2026-05-04 12:03 38.98715 12.69356 37168 ft 491 kts 148°
2026-05-04 12:03 38.93114 12.74366 37162 ft 491 kts 148°
2026-05-04 12:04 38.87511 12.79370 37163 ft 491 kts 148°
2026-05-04 12:04 38.81908 12.84362 36874 ft 490 kts 148°
2026-05-04 12:05 38.79107 12.86860 36235 ft 491 kts 148°
2026-05-04 12:05 38.76303 12.89353 35736 ft 489 kts 148°
2026-05-04 12:05 38.73512 12.91825 35280 ft 487 kts 148°
2026-05-04 12:05 38.70731 12.94287 34821 ft 485 kts 148°
2026-05-04 12:06 38.67963 12.96740 34376 ft 483 kts 148°
2026-05-04 12:06 38.65242 12.99147 33893 ft 481 kts 148°
2026-05-04 12:06 38.62504 13.01574 33426 ft 477 kts 148°
2026-05-04 12:06 38.59784 13.03983 33036 ft 473 kts 148°
2026-05-04 12:07 38.57087 13.06365 32637 ft 470 kts 148°
2026-05-04 12:07 38.54408 13.08726 32257 ft 466 kts 148°
2026-05-04 12:07 38.51751 13.11065 31876 ft 462 kts 148°
2026-05-04 12:07 38.49115 13.13382 31497 ft 458 kts 148°
2026-05-04 12:08 38.46499 13.15678 31140 ft 455 kts 148°
2026-05-04 12:08 38.43898 13.17959 30775 ft 452 kts 148°
2026-05-04 12:08 38.41315 13.20227 30414 ft 449 kts 148°
2026-05-04 12:08 38.38755 13.22477 30030 ft 445 kts 148°
2026-05-04 12:09 38.36216 13.24709 29586 ft 442 kts 148°
2026-05-04 12:09 38.33691 13.26925 29176 ft 439 kts 148°
2026-05-04 12:09 38.31178 13.29122 28766 ft 436 kts 148°
2026-05-04 12:09 38.28681 13.31298 28366 ft 434 kts 148°
2026-05-04 12:10 38.26197 13.33459 27972 ft 431 kts 148°
2026-05-04 12:10 38.23725 13.35612 27583 ft 429 kts 148°
2026-05-04 12:10 38.21269 13.37753 27196 ft 427 kts 148°
2026-05-04 12:10 38.18823 13.39887 26822 ft 425 kts 148°
2026-05-04 12:11 38.16393 13.42008 26447 ft 423 kts 148°
2026-05-04 12:11 38.13975 13.44113 26075 ft 420 kts 148°
2026-05-04 12:11 38.11570 13.46200 25713 ft 418 kts 148°
2026-05-04 12:11 38.09176 13.48274 25344 ft 415 kts 148°
2026-05-04 12:12 38.06800 13.50332 24996 ft 412 kts 148°
2026-05-04 12:12 38.04438 13.52374 24646 ft 409 kts 148°
2026-05-04 12:12 38.02094 13.54402 24301 ft 407 kts 148°
2026-05-04 12:12 37.99767 13.56419 23964 ft 404 kts 148°
2026-05-04 12:13 37.97456 13.58422 23604 ft 401 kts 149°
2026-05-04 12:14 37.84959 13.75754 20876 ft 383 kts 111°
2026-05-04 12:15 37.83980 13.78872 20513 ft 380 kts 111°
2026-05-04 12:15 37.83005 13.81961 20143 ft 377 kts 110°
2026-05-04 12:15 37.82035 13.85035 19786 ft 375 kts 110°
2026-05-04 12:15 37.81073 13.88088 19434 ft 373 kts 111°
2026-05-04 12:16 37.80117 13.91117 19090 ft 370 kts 111°
2026-05-04 12:16 37.79166 13.94126 18738 ft 367 kts 111°
2026-05-04 12:16 37.78221 13.97109 18387 ft 364 kts 111°
2026-05-04 12:16 37.77283 14.00073 17987 ft 362 kts 111°
2026-05-04 12:17 37.76347 14.03009 17591 ft 359 kts 111°
2026-05-04 12:17 37.75406 14.05918 17201 ft 356 kts 112°
2026-05-04 12:17 37.74466 14.08803 16817 ft 354 kts 112°
2026-05-04 12:17 37.73531 14.11668 16439 ft 351 kts 112°
2026-05-04 12:18 37.72604 14.14509 16057 ft 349 kts 112°
2026-05-04 12:18 37.71993 14.16381 15817 ft 348 kts 112°
2026-05-04 12:18 37.71077 14.19195 15442 ft 345 kts 112°
2026-05-04 12:18 37.70166 14.21990 15104 ft 343 kts 112°
2026-05-04 12:19 37.69269 14.24737 14973 ft 333 kts 112°
2026-05-04 12:19 37.68397 14.27397 14851 ft 324 kts 112°
2026-05-04 12:19 37.67548 14.29986 14729 ft 315 kts 112°
2026-05-04 12:19 37.66721 14.32506 14594 ft 307 kts 112°
2026-05-04 12:20 37.65908 14.34975 14349 ft 303 kts 112°
2026-05-04 12:20 37.65100 14.37427 14061 ft 302 kts 112°
2026-05-04 12:20 37.64298 14.39864 13820 ft 300 kts 112°
2026-05-04 12:20 37.63501 14.42292 13733 ft 300 kts 112°
2026-05-04 12:21 37.62723 14.44731 13641 ft 299 kts 108°
2026-05-04 12:21 37.62301 14.47282 13494 ft 298 kts 93°
2026-05-04 12:21 37.62355 14.49900 13063 ft 300 kts 83°
2026-05-04 12:21 37.62543 14.52485 12903 ft 292 kts 83°
2026-05-04 12:22 37.62721 14.55001 12769 ft 284 kts 83°
2026-05-04 12:22 37.62890 14.57459 12556 ft 280 kts 84°
2026-05-04 12:22 37.63058 14.59891 12296 ft 277 kts 83°
2026-05-04 12:22 37.63224 14.62294 11866 ft 274 kts 84°
2026-05-04 12:23 37.63387 14.64685 11378 ft 272 kts 84°
2026-05-04 12:23 37.63547 14.67053 10935 ft 269 kts 84°
2026-05-04 12:23 37.63691 14.69420 10571 ft 272 kts 88°
2026-05-04 12:23 37.63278 14.71711 10347 ft 269 kts 119°
2026-05-04 12:24 37.62063 14.73420 10221 ft 259 kts 148°
2026-05-04 12:24 37.60418 14.74199 10017 ft 251 kts 174°
2026-05-04 12:24 37.58691 14.74479 9734 ft 250 kts 174°
2026-05-04 12:24 37.56957 14.74729 9384 ft 251 kts 180°
2026-05-04 12:25 37.55303 14.74251 9135 ft 243 kts 212°
2026-05-04 12:25 37.54124 14.72799 8923 ft 237 kts 243°
2026-05-04 12:25 37.53674 14.70838 8732 ft 234 kts 265°
2026-05-04 12:25 37.53501 14.68791 8531 ft 235 kts 265°
2026-05-04 12:26 37.53326 14.66741 8331 ft 236 kts 264°
2026-05-04 12:26 37.53150 14.64695 8131 ft 235 kts 264°
2026-05-04 12:26 37.52973 14.62652 8018 ft 235 kts 264°
2026-05-04 12:26 37.52796 14.60628 7867 ft 235 kts 264°
2026-05-04 12:27 37.52615 14.58585 7669 ft 234 kts 264°
2026-05-04 12:27 37.52433 14.56548 7541 ft 233 kts 264°
2026-05-04 12:27 37.52252 14.54518 7424 ft 234 kts 264°
2026-05-04 12:27 37.52070 14.52485 7305 ft 233 kts 264°
2026-05-04 12:28 37.51889 14.50459 7187 ft 232 kts 264°
2026-05-04 12:28 37.51708 14.48436 7071 ft 232 kts 264°
2026-05-04 12:28 37.51406 14.46448 6946 ft 232 kts 245°
2026-05-04 12:28 37.50393 14.44905 6832 ft 232 kts 212°
2026-05-04 12:29 37.48896 14.44345 6699 ft 223 kts 178°
2026-05-04 12:29 37.47414 14.44729 6583 ft 215 kts 167°
2026-05-04 12:29 37.45952 14.45016 6500 ft 212 kts 174°
2026-05-04 12:29 37.44486 14.45179 6347 ft 211 kts 176°
2026-05-04 12:30 37.43070 14.45580 6225 ft 210 kts 153°
2026-05-04 12:30 37.42010 14.46810 6112 ft 210 kts 120°
2026-05-04 12:30 37.41643 14.48568 6005 ft 211 kts 88°
2026-05-04 12:30 37.41791 14.50400 5887 ft 211 kts 83°
2026-05-04 12:31 37.41957 14.52233 5780 ft 211 kts 83°
2026-05-04 12:31 37.42123 14.54063 5668 ft 210 kts 83°
2026-05-04 12:31 37.42289 14.55888 5557 ft 210 kts 84°
2026-05-04 12:31 37.42449 14.57713 5456 ft 210 kts 84°
2026-05-04 12:32 37.42608 14.59536 5353 ft 210 kts 84°
2026-05-04 12:32 37.42928 14.63171 5149 ft 208 kts 84°
2026-05-04 12:32 37.43088 14.64986 5059 ft 209 kts 84°
2026-05-04 12:33 37.43247 14.66799 4982 ft 208 kts 84°
2026-05-04 12:33 37.43406 14.68609 4987 ft 208 kts 84°
2026-05-04 12:33 37.43565 14.70421 4987 ft 208 kts 84°
2026-05-04 12:33 37.43723 14.72228 4964 ft 207 kts 84°
2026-05-04 12:34 37.43881 14.74036 4826 ft 208 kts 84°
2026-05-04 12:34 37.44039 14.75847 4578 ft 208 kts 84°
2026-05-04 12:34 37.44193 14.77627 4309 ft 207 kts 84°
2026-05-04 12:34 37.44350 14.79428 4036 ft 204 kts 85°
2026-05-04 12:35 37.44500 14.81158 3769 ft 194 kts 85°
2026-05-04 12:35 37.44643 14.82809 3521 ft 186 kts 86°
2026-05-04 12:35 37.44781 14.84409 3274 ft 177 kts 85°
2026-05-04 12:35 37.44911 14.85913 3054 ft 170 kts 85°
2026-05-04 12:36 37.45034 14.87333 2836 ft 162 kts 85°
2026-05-04 12:36 37.45154 14.88739 2629 ft 160 kts 86°
2026-05-04 12:36 37.45272 14.90116 2415 ft 157 kts 86°
2026-05-04 12:36 37.45388 14.91466 2204 ft 155 kts 86°
2026-05-04 12:37 37.45504 14.92823 2019 ft 157 kts 86°
2026-05-04 12:37 37.45620 14.94186 1797 ft 156 kts 86°
2026-05-04 12:37 37.45736 14.95539 1585 ft 155 kts 86°
2026-05-04 12:37 37.45850 14.96877 1381 ft 152 kts 86°
2026-05-04 12:38 37.45963 14.98204 1190 ft 153 kts 86°
2026-05-04 12:38 37.46074 14.99527 983 ft 151 kts 86°
2026-05-04 12:38 37.46182 15.00825 777 ft 147 kts 86°
2026-05-04 12:38 37.46287 15.02085 557 ft 143 kts 86°
2026-05-04 12:39 37.46400 15.03307 338 ft 139 kts 86°
2026-05-04 12:39 37.46512 15.04499 200 ft 136 kts 88°
2026-05-04 12:39 37.46607 15.05681 45 ft 135 kts 88°
2026-05-04 12:39 37.46680 15.06677 29 ft 79 kts 83°
2026-05-04 12:40 37.46722 15.07135 28 ft 45 kts 84°
2026-05-04 12:40 37.46753 15.07508 26 ft 38 kts 79°
2026-05-04 12:40 37.46836 15.07731 26 ft 14 kts 59°
2026-05-04 12:40 37.46881 15.07804 23 ft 11 kts 37°
2026-05-04 12:41 37.46935 15.07766 24 ft 10 kts 283°
2026-05-04 12:41 37.46932 15.07677 26 ft 10 kts 264°
2026-05-04 12:41 37.46925 15.07584 27 ft 11 kts 264°
2026-05-04 12:41 37.46915 15.07473 27 ft 14 kts 263°
2026-05-04 12:42 37.46902 15.07339 27 ft 16 kts 263°
2026-05-04 12:42 37.46889 15.07193 29 ft 18 kts 264°
2026-05-04 12:42 37.46879 15.07053 27 ft 12 kts 265°
2026-05-04 12:42 37.46871 15.06950 25 ft 14 kts 264°
2026-05-04 12:43 37.46861 15.06817 26 ft 16 kts 264°
2026-05-04 12:43 37.46848 15.06685 28 ft 14 kts 264°
2026-05-04 12:43 37.46838 15.06556 27 ft 15 kts 264°
2026-05-04 12:43 37.46872 15.06498 26 ft 6 kts 21°
2026-05-04 12:44 37.46919 15.06515 26 ft 6 kts 17°
2026-05-04 12:44 37.46944 15.06525 26 ft 2 kts 18°
2026-05-04 12:44 37.46948 15.06527 26 ft 0 kts 18°